ONEWEB-0064, 45433

Orbit data source: Space-Track

ONEWEB-0064, 45433 is a payload satellite owned by One Web (UK) in LEO that was launched on Sat, 21 Mar 2020 UTC via a SOYUZ-2-1B launch vehicle from the Tyuratam Missile And Space Complex (TTMTR). Payload-class satellites include a variety of spacecraft equipped with specific instruments for various scientific and technological missions. These include communications satellites like Starlink; space stations such as the ISS; scientific satellites like the Hubble; Earth observation satellites from companies like Planet Labs, Umbra, and HawkEye 360; GPS; miniature CubeSats for education and research; and military/defense satellites.

Loading next visibility...
Identifier
45433, 2020-020K
Orbit
LEO
Last TLE update
8 hours ago
Origin
Manufacturer
One Web
Mission
Operational Commercial Communications
Bus & Motor
ARROW, Unknown motor
Mass
148 kg wet, ~140 kg dry
Launch date (UTC)
2020-03-21 (5 years ago)
Launch vehicle
SOYUZ-2-1B
Launch site
Tyuratam Missile And Space Complex (TTMTR)
Object type
Payload
Rocket body
Debris
Shape & HBR
Trap Box + 2 Pan, 5 m
Radar Cross Section
2.957 m², Large (>1 m²)

Expand to show TLE details & history

TLE from 8 hours ago
0 ONEWEB-0064
1 45433U 20020K   25181.76276247 -.00000248  00000-0 -73537-3 0  9995
2 45433  87.8840  91.1265 0002055  73.9856 286.1498 13.11415772256632
Epoch: 2025-06-30T18:18Z
TLE epoch observation values (Epoch: 2025-06-30T18:18:22.677Z)
Latitude
-0.00004°
Longitude
-102.5359°
Altitude
1,220.142 km
Speed
7.244 km/s
True Right ascension
06h 04m 30s
True Declination
0° 00' 00"
Sunlit
Object was in daylight at epoch
Visualization orbit readout
Latitude
49.48817°
Longitude
-100.13294°
Altitude
1,224.131 km
Speed
7.248 km/s
Apparent Right ascension
03h 52m 49s
Apparent Declination
11° 52' 52"
Sunlit
Object is in daylight
Visualization observer readout
Local Sidereal Time
13:29:56
Azimuth
319.447° NNW
Elevation
-28.506°
Doppler factor
1
Orbital elements
Apogee altitude
1,216.366 km
Perigee altitude
1,213.245 km
Semi-major axis
7,592.943 km
Eccentricity
0.00021
Inclination
87.884°
RAAN
91.1265°
Arg. of periapsis
73.9856°
True anomaly
Unknown
Mean anomaly
286.1498°
Eccentric anomaly
Unknown
Mean motion
3.28041 °/min
Orbital period
109.74 mins
BSTAR
-0.00073537
Loading maneuver chart data...
Loading SW <> Apogee altitude chart data...
Loading historical data...
Loading historical data...
Loading historical data...
Loading historical data...
Loading historical data...
Loading historical data...
Loading historical data...

ONEWEB-0064 Visibility forecast

Observer location: undefined°, undefined°

Span
Click to sort rows by Start time (UTC) header in descending order
Start Az.
Max El. time (UTC)
Max El. Az.
Max El.
End time (UTC)
End Az.
13 mins2025-07-01 05:53:53.906Z5.916° NNE2025-07-01 05:59:53.906Z69.66° E42.642°2025-07-01 06:06:53.906Z169.354° S
8 mins2025-07-01 07:45:53.906Z319.643° NNW2025-07-01 07:49:53.906Z280.037° WNW19.774°2025-07-01 07:53:53.906Z244.253° WSW
13 mins2025-07-01 18:12:53.906Z170.013° S2025-07-01 18:18:53.906Z81.926° E44.079°2025-07-01 18:25:53.906Z4.213° NNE
8 mins2025-07-01 20:05:53.906Z252.825° W2025-07-01 20:09:53.906Z290.437° WNW17.75°2025-07-01 20:13:53.906Z325.381° NNW
|